Вернуться в каталог

LUMELITE 4

АктивенСвязьVLEO
NORAD 56309·PAYLOAD·🇸🇬 Singapore

Запущен Apr 22, 2023 с Satish Dhawan Space Centre

Loading…

Ближайшие Пролёты (ближайшие 24 часа)

TLE

УстаревшееSource: Space-Track

Эпоха: Sep 6, 2026, 01:17 UTC

1 56309U 23057B   26249.05409616  .00005126  00000-0  17143-3 0  9997
2 56309   9.9907 166.9814 0005677 229.3218 130.6505 15.23415096186401

Отслеживайте LUMELITE 4 в реальном времени с AllMySat

Download on the App Store